Owen Roberts, Cayman Islands

9:08 AM EST on April 27, 2017 (GMT -0500)
Roberts International

Weather History for MWCR - May, 2013

Change the Weather History Date:

Monday, May 20, 2013

  Actual Average Record
Temperature  
Mean Temperature 84 °F -  
Max Temperature 89 °F 86 °F 90 °F (2016)
Min Temperature 79 °F 78 °F 73 °F (1998)
Cooling Degree Days 19    
Growing Degree Days 34 (Base 50)    
Moisture  
Dew Point 78 °F    
Average Humidity 79    
Maximum Humidity 94    
Minimum Humidity 70    
Precipitation  
Precipitation 0.00 in - - ()
Sea Level Pressure  
Sea Level Pressure 29.95 in    
Wind  
Wind Speed 6 mph ()    
Max Wind Speed 10 mph    
Max Gust Speed -    
Visibility 6.2 miles    
Events      
Averages and records for this station are not official NWS values.
T = Trace of Precipitation, MM = Missing Value Source: Averaged Metar Reports

Daily Weather History Graph

Daily Weather History Graph

Search for Another Location

Airport or City:

Trip Planner

Search our weather history database for the weather conditions in past years. The results will help you decide how hot, cold, wet, or windy it might be!

Date:

Astronomy

May. 20, 2013 Rise Set
Actual Time 5:48 AM EST 6:55 PM EST
Civil Twilight 5:25 AM EST 7:19 PM EST
Nautical Twilight 4:57 AM EST 7:47 PM EST
Astronomical Twilight 4:28 AM EST 8:16 PM EST
Moon 2:36 PM EST (5/20) 2:03 AM EST (5/20)
Length of Visible Light 13h 53m
Length of Day
13h 06m
Waxing Gibbous, 75% of the Moon is Illuminated
May 20
Waxing Gibbous
May 24
Full
May 31
Last Quarter
Jun 8
New
Jun 16
First Quarter

Hourly Weather History & Observations

Time (EST) Temp. Heat Index Dew Point Humidity Pressure Visibility Wind Dir Wind Speed Gust Speed Precip Events Conditions
6:00 AM 80.6 °F 88.1 °F 78.8 °F 94% 29.95 in 6.2 mi East 4.6 mph - N/A   Partly Cloudy
7:00 AM 82 °F - 79 °F 87% 29.98 in 6 mi East 6.9 mph - -   Partly Cloudy
7:00 AM 82.4 °F 92.4 °F 78.8 °F 89% 29.98 in 6.2 mi East 6.9 mph - N/A   Partly Cloudy
9:00 AM 86.0 °F 96.9 °F 77.0 °F 74% 29.98 in 6.2 mi East 8.1 mph - N/A   Scattered Clouds
10:00 AM 86.0 °F 96.9 °F 77.0 °F 74% 29.98 in 6.2 mi ESE 8.1 mph - N/A   Scattered Clouds
11:00 AM 86.0 °F 99.3 °F 78.8 °F 79% 29.98 in 6.2 mi SE 10.4 mph - N/A   Scattered Clouds
12:00 PM 87.8 °F 102.5 °F 78.8 °F 75% 29.98 in 6.2 mi SE 9.2 mph - N/A   Scattered Clouds
1:00 PM 87 °F - 80 °F 73% 29.97 in 6 mi SE 8.1 mph - -   Scattered Clouds
1:00 PM 87.8 °F 102.5 °F 78.8 °F 75% 29.95 in 6.2 mi SE 8.1 mph - N/A   Partly Cloudy
2:00 PM 86.0 °F 99.3 °F 78.8 °F 79% 29.95 in 6.2 mi SE 6.9 mph - N/A   Scattered Clouds
3:00 PM 87.8 °F 99.7 °F 77.0 °F 70% 29.92 in 6.2 mi SE 8.1 mph - N/A   Partly Cloudy
4:00 PM 87.8 °F 99.7 °F 77.0 °F 70% 29.92 in 6.2 mi SE 9.2 mph - N/A   Partly Cloudy
5:00 PM 86.0 °F 96.9 °F 77.0 °F 74% 29.89 in 6.2 mi SE 6.9 mph - N/A   Partly Cloudy
6:00 PM 86.0 °F 96.9 °F 77.0 °F 74% 29.89 in 6.2 mi East 6.9 mph - N/A   Partly Cloudy
7:00 PM 83 °F - 77 °F 76% 29.91 in 6 mi ESE 5.8 mph - -   Scattered Clouds
7:00 PM 84.2 °F 94.1 °F 77.0 °F 79% 29.89 in 6.2 mi ESE 5.8 mph - N/A   Partly Cloudy
8:00 PM 82.4 °F 90.9 °F 77.0 °F 84% 29.95 in 6.2 mi East 4.6 mph - N/A   Partly Cloudy
9:00 PM 82.4 °F 90.9 °F 77.0 °F 84% 29.95 in 6.2 mi East 4.6 mph - N/A   Partly Cloudy
10:00 PM 82.4 °F 90.9 °F 77.0 °F 84% 29.95 in 6.2 mi East 5.8 mph - N/A   Partly Cloudy